Regional Weather Roundup
Issued by NWS

Home | Current Version | Previous Version | Graphics & Text | Print | Product List | Glossary Off
Versions: 1 2 3 4 5 6 7 8 9 10 11 12 13 14 15 16 17 18 19 20 21 22 23 24 25 26 27 28 29 30 31 32 33 34 35 36 37 38 39 40 41 42 43 44 45 46 47 48 49 50

000
ASUS43 KMKX 240621
RWRWI

WISCONSIN REGIONAL WEATHER ROUNDUP
NATIONAL WEATHER SERVICE MILWAUKEE/SULLIVAN WI
100 AM CDT MON JUL 24 2017

NOTE: "FAIR" INDICATES FEW OR NO CLOUDS BELOW 12,000 FEET WITH NO
SIGNIFICANT WEATHER AND/OR OBSTRUCTIONS TO VISIBILITY.

WIZ001-002-006>008-014>016-023>028-240700-
NORTHWEST WISCONSIN

CITY           SKY/WX    TMP DP  RH WIND       PRES   REMARKS
SUPERIOR ARPT  NOT AVBL
ASHLAND        FOG       47  47 100 CALM      30.05S VSB 3/4
6HR MIN TEMP:  46; 6HR MAX TEMP:  63;

HAYWARD        FOG       52  51  97 CALM      30.05S VSB 3/4
6HR MIN TEMP:  52; 6HR MAX TEMP:  63;

SIREN          CLEAR     56  55  95 CALM      30.05S
6HR MIN TEMP:  56; 6HR MAX TEMP:  67;

CUMBERLAND     CLEAR     55  54  94 N3        30.04R
RICE LAKE      CLEAR     56  54  91 N6        30.04S
6HR MIN TEMP:  56; 6HR MAX TEMP:  65;

CHETEK         CLEAR     59  56  89 NE3       30.03F
6HR MIN TEMP:  59; 6HR MAX TEMP:  65;

LADYSMITH      CLEAR     56  55  95 N5        30.06R
6HR MIN TEMP:  56; 6HR MAX TEMP:  65;

EAU CLAIRE     CLEAR     61  57  87 NE5       30.00F
6HR MIN TEMP:  61; 6HR MAX TEMP:  68;

MENOMONIE      PTCLDY    61  57  86 N3        30.02S
6HR MIN TEMP:  61; 6HR MAX TEMP:  68;

NEW RICHMOND   CLEAR     57  55  95 N3        30.04R
6HR MIN TEMP:  57; 6HR MAX TEMP:  69;

OSCEOLA        PTCLDY    57  57 100 CALM      30.06S
6HR MIN TEMP:  57; 6HR MAX TEMP:  69;

$$

WIZ003>005-009-010-017-018-240700-
NORTH CENTRAL WISCONSIN

CITY           SKY/WX    TMP DP  RH WIND       PRES   REMARKS
MANITOWISH WTR MOCLDY    54  54 100 CALM      30.05R FOG
6HR MIN TEMP:  49; 6HR MAX TEMP:  60;

ARBOR VITAE    FOG       52  51  95 CALM      30.04R VSB 1/4
6HR MIN TEMP:  52; 6HR MAX TEMP:  62;

WOODRUFF       FOG       52  51  95 CALM      30.04R VSB 1/4
6HR MIN TEMP:  52; 6HR MAX TEMP:  62;

RHINELANDER    CLEAR     53  53 100 CALM      30.04R
6HR MIN TEMP:  53; 6HR MAX TEMP:  62;

EAGLE RIVER    CLEAR     51  51 100 CALM      30.03S
6HR MIN TEMP:  50; 6HR MAX TEMP:  61;

LAND O LAKES   CLEAR     51  51 100 N3        30.05S
6HR MIN TEMP:  47; 6HR MAX TEMP:  61;

PHILLIPS       CLEAR     51  51 100 CALM      30.04S
6HR MIN TEMP:  51; 6HR MAX TEMP:  63;

TOMAHAWK         N/A     51  49  96 CALM      30.04S
6HR MIN TEMP:  48; 6HR MAX TEMP:  64;

MEDFORD        CLEAR     54  52  92 N3        30.02S
6HR MIN TEMP:  54; 6HR MAX TEMP:  65;

MERRILL        NOT AVBL
$$

WIZ029-030-035-036-043>047-240700-
CENTRAL WISCONSIN

CITY           SKY/WX    TMP DP  RH WIND       PRES   REMARKS
WAUSAU         CLEAR     58  54  86 N3        29.99S
6HR MIN TEMP:  58; 6HR MAX TEMP:  69;

MOSINEE        CLEAR     55  54  94 N6        30.01S
MARSHFIELD     CLEAR     59  53  80 NE8       30.00S
6HR MIN TEMP:  59; 6HR MAX TEMP:  70;

STEVENS POINT  CLEAR     56  54  94 CALM      30.00F
6HR MIN TEMP:  56; 6HR MAX TEMP:  71;

WAUPACA        CLOUDY    64  56  76 N7        29.99S
6HR MIN TEMP:  63; 6HR MAX TEMP:  78;

WAUTOMA        MOCLDY    62  55  77 NE7       29.99R
6HR MIN TEMP:  61; 6HR MAX TEMP:  77;

WISC RAPIDS    CLEAR     62  54  74 NE7       30.01R
6HR MIN TEMP:  62; 6HR MAX TEMP:  76;

CAMP DOUGLAS   CLEAR     58  57  99 CALM      29.98S
6HR MIN TEMP:  58; 6HR MAX TEMP:  74;

$$

WIZ011>013-019>022-031-037>040-048>050-240700-
NORTHEAST WISCONSIN

CITY           SKY/WX    TMP DP  RH WIND       PRES   REMARKS
ANTIGO         CLEAR     53  53  99 N6        30.02S
6HR MIN TEMP:  52; 6HR MAX TEMP:  65;

SHAWANO        CLOUDY    63  56  78 NE14      29.99S
6HR MIN TEMP:  63; 6HR MAX TEMP:  73;

OCONTO         CLOUDY    61  55  81 N9        29.97S
6HR MIN TEMP:  61; 6HR MAX TEMP:  66;

STURGEON BAY     N/A     62  56  80 NE13G20   29.97
6HR MIN TEMP:  62; 6HR MAX TEMP:  65;

GREEN BAY      CLOUDY    62  58  86 N10       29.96S
6HR MIN TEMP:  62; 6HR MAX TEMP:  73;

MANITOWOC      LGT RAIN  63  58  83 N13       29.95R
6HR MIN TEMP:  63; 6HR MAX TEMP:  68; 6HR PCP: TRACE;

APPLETON       CLOUDY    61  52  72 N12       29.96S
CLINTONVILLE   CLOUDY    61  54  77 N7        29.99S
OSHKOSH        CLOUDY    64  56  75 N10       29.95S
6HR MIN TEMP:  64; 6HR MAX TEMP:  75; 6HR PCP: TRACE;

$$

WIZ032>034-041-042-053>061-240700-
SOUTHWEST WISCONSIN

CITY           SKY/WX    TMP DP  RH WIND       PRES   REMARKS
LA CROSSE      CLOUDY    67  61  81 N6        29.99R
6HR MIN TEMP:  66; 6HR MAX TEMP:  76;

SPARTA         CLOUDY    61  57  88 CALM      30.00R
6HR MIN TEMP:  61; 6HR MAX TEMP:  74;

VIROQUA        CLEAR     60  59  98 CALM      30.00R
6HR MIN TEMP:  60; 6HR MAX TEMP:  73;

BOSCOBEL       PTCLDY    63  60  90 CALM      29.96R
6HR MIN TEMP:  63; 6HR MAX TEMP:  80;

PRAIRIE DU CHI PTCLDY    66  59  78 N6        29.96S
6HR MIN TEMP:  66; 6HR MAX TEMP:  76;

PLATTEVILLE    CLEAR     64  64 100 N7        29.96R
6HR MIN TEMP:  64; 6HR MAX TEMP:  76;

$$

WIZ056-057-062-063-064-067-068-240700-
SOUTH CENTRAL WISCONSIN

CITY           SKY/WX    TMP DP  RH WIND       PRES   REMARKS
REEDSBURG      CLEAR     62  57  81 NE6       29.97R
6HR MIN TEMP:  63; 6HR MAX TEMP:  75;

BARABOO/DELLS  CLOUDY    62  55  78 NE6       29.97S
6HR MIN TEMP:  61; 6HR MAX TEMP:  77;

LONE ROCK      PTCLDY    67  60  78 NE7       29.96R
6HR MIN TEMP:  66; 6HR MAX TEMP:  78;

MINERAL POINT  PTCLDY    64  63  94 N7        29.96R
MADISON        CLEAR     63  57  81 NE8       29.96R
6HR MIN TEMP:  63; 6HR MAX TEMP:  79;

MIDDLETON      PTCLDY    64  58  82 E3        29.98R
6HR MIN TEMP:  64; 6HR MAX TEMP:  80;

WATERTOWN      PTCLDY    62  60  92 N8        29.95S
6HR MIN TEMP:  62; 6HR MAX TEMP:  77;

MONROE         CLOUDY    68  63  83 NE10      29.94R
JANESVILLE     CLOUDY    70  68  94 NE8       29.93R
$$

WIZ051-052-058>065-066-070>072-240700-
SOUTHEAST WISCONSIN

CITY           SKY/WX    TMP DP  RH WIND       PRES   REMARKS
MILWAUKEE      PTCLDY    66  61  84 N10       29.93R
6HR MIN TEMP:  66; 6HR MAX TEMP:  75;

WAUKESHA       CLOUDY    63  55  77 N8        29.95S
MILWAUKEE/TIMM CLOUDY    63  54  72 N8        29.95R
RACINE         MOCLDY    66  62  87 N14       29.94R
6HR MIN TEMP:  66; 6HR MAX TEMP:  79;

KENOSHA        CLOUDY    66  61  84 N7        29.93R
6HR MIN TEMP:  66; 6HR MAX TEMP:  76;

FOND DU LAC    CLOUDY    65  55  70 NE13      29.96R
6HR MIN TEMP:  65; 6HR MAX TEMP:  77;

SHEBOYGAN      CLOUDY    63  60  90 N8        29.94R
6HR MIN TEMP:  63; 6HR MAX TEMP:  70; 6HR PCP: TRACE;

WEST BEND      CLOUDY    61  59  94 NW3       29.95S
JUNEAU         CLOUDY    63  57  83 N5        29.97R
6HR MIN TEMP:  62; 6HR MAX TEMP:  76;

$$

LSZ147-162-240700-
LAKE SUPERIOR

STATION/POSITION TIME  TEMP    WIND        PRES    WAVE
                       AIR SEA DIR/SP/G            HT/PER
                 (UTC) (F)     (DEG/KT/KT) (MB)    (FT/S)
W MID LAKE BUOY  0550   50 48     CALM     1017.7R   1/ 5
DEVILS ISLAND    0600   55     230/  4/  5 1017.6F
SAXON HARBOR     0540   58     160/  2/  3 1017.3R
$$

LMZ867-665-643>646-240700-
LAKE MICHIGAN

STATION/POSITION TIME  TEMP    WIND        PRES    WAVE
                       AIR SEA DIR/SP/G            HT/PER
                 (UTC) (F)     (DEG/KT/KT) (MB)    (FT/S)
CHAMBERS ISLAND  0540   64      10/ 18/ 21 1014.2R
S GREEN BAY BUOY 0600   64 72  360/ 17/ 21 1014.2
N MID LAKE BUOY  0550   62 66   50/ 19/ 23 1014.4R   4/ 5
NORTHPORT PIER   0


USA.gov is the U.S. government's official web portal to all federal, state and local government web resources and services.